SUPERBIRD-B3

Last updated on Mon Oct 14 2024 00:02:40 GMT+0000 (Coordinated Universal Time)

1 43271U 18033A 24287.46854894 -.00000094 00000+0 00000+0 0 9995 2 43271 0.0147 138.9821 0001136 70.9838 143.2392 1.00271270 23929
UTC large
Height (km)
Speed (km/s)
/
Latitude / Longitude
Inclination (degrees)
Orbital Period (minutes)
Azimuth
Elevation
Range (km)
Doppler Factor

Next 0 passes for location: London (51.5072 / 0.1276)

Sorry there are no passes over London.